GFSSGP_925_rhum_024.txt.gz
RH
17 15 19 30 30 29 28 22 15 35 46 45 56 68 81 81 85 73 88 84 85 100 99 91 84 72 63 62 67 68 55 41 34 34 30 27 26 28 30 30 36 38 45 29 26 26 27 28 34
18 16 26 35 24 24 21 19 41 51 44 39 39 57 75 90 84 95 95 92 96 95 91 85 77 61 61 68 73 64 46 38 31 28 28 24 28 34 32 29 31 34 33 30 27 26 32 35 39
19 27 45 38 25 22 21 27 52 53 47 40 38 40 63 89 89 86 96 98 99 100 92 85 65 62 72 79 75 53 43 38 32 23 22 23 37 34 31 29 30 30 29 27 26 30 32 35 37
27 24 26 18 19 17 14 19 52 53 45 51 43 53 56 78 72 90 94 83 91 100 86 68 62 68 79 78 56 42 35 34 26 19 22 35 32 28 26 26 27 28 30 31 30 40 36 34 37
29 24 20 19 16 29 56 56 58 67 73 67 53 56 72 94 93 98 86 96 100 98 78 69 73 78 79 64 49 41 34 29 21 20 29 27 25 24 24 27 27 30 32 32 31 38 42 36 37
34 22 21 22 15 47 55 64 54 64 65 58 59 73 95 100 99 100 99 97 95 95 88 88 89 90 84 55 42 40 33 24 17 22 27 27 27 28 28 30 32 34 34 34 32 33 42 46 41
31 30 28 20 19 18 55 60 54 58 55 62 57 77 94 97 100 100 96 100 98 100 100 100 84 68 79 60 50 33 26 19 19 28 26 29 30 29 30 32 33 33 34 31 33 39 48 47 42
27 23 21 18 22 51 52 55 52 47 58 50 60 76 90 96 100 99 98 84 86 98 94 91 80 84 75 52 36 32 22 20 30 28 27 28 29 31 30 30 31 33 34 43 45 45 50 49 46
15 22 23 17 52 49 53 59 49 43 57 56 73 83 91 100 98 99 100 97 95 95 88 54 82 83 66 42 36 31 23 32 30 32 33 54 53 51 34 31 36 43 43 50 51 52 52 52 47
21 24 21 31 56 51 48 56 48 50 61 62 94 96 96 90 88 90 94 99 100 98 92 62 79 82 59 42 39 33 30 37 43 54 57 60 59 57 55 43 46 57 58 55 56 55 49 41 42
18 22 31 43 49 51 49 48 46 63 73 62 92 88 87 89 84 79 92 82 83 98 79 89 89 80 52 38 40 36 40 54 62 64 67 70 63 63 64 62 61 62 58 52 47 44 42 40 39
18 15 32 42 48 50 51 44 39 40 58 56 88 86 88 84 86 78 87 90 76 85 71 82 88 68 46 44 58 63 65 73 76 72 69 72 68 64 66 57 57 57 53 51 46 42 41 40 38
17 22 37 38 40 39 42 38 44 64 59 62 76 85 89 90 87 77 82 91 97 99 83 87 89 63 54 55 65 70 75 80 78 75 72 70 67 65 61 57 57 57 52 46 42 41 40 40 40
18 32 36 43 36 31 34 41 40 59 60 65 72 81 89 84 85 78 84 88 92 94 88 75 65 66 59 61 65 76 83 76 70 66 68 65 60 59 62 61 58 51 45 44 44 43 42 42 42
15 32 41 46 39 35 34 35 44 52 61 68 65 67 70 86 79 76 79 86 89 86 81 76 72 73 63 62 76 80 77 68 56 50 50 54 63 70 61 55 48 44 44 44 45 46 46 46 45
15 18 41 40 43 34 29 37 37 48 56 66 64 64 58 76 77 79 80 87 80 75 78 83 75 67 64 71 74 64 54 53 52 55 60 68 63 52 54 52 47 45 45 46 46 47 47 46 46
25 21 22 37 37 34 31 34 36 45 52 62 55 52 48 64 68 71 77 77 74 68 72 71 67 66 67 68 64 56 60 60 61 56 54 56 53 55 51 47 48 48 47 47 48 47 45 42 43
24 19 19 22 20 35 26 30 52 49 53 50 51 53 47 50 53 67 74 73 64 61 70 66 65 65 65 65 61 67 69 62 56 54 52 50 49 49 48 48 48 49 48 50 50 47 43 42 45
22 27 21 19 18 21 26 54 54 54 50 47 53 54 52 46 43 53 70 73 69 67 69 64 67 68 68 68 70 73 69 60 54 54 51 48 45 47 48 49 50 50 49 48 47 48 46 43 52
29 27 26 22 17 16 30 47 56 53 43 40 54 59 58 53 46 47 58 69 71 69 72 68 67 72 73 69 65 68 68 62 55 50 48 47 45 46 45 46 45 44 43 44 47 48 48 52 53
31 26 27 22 12 19 22 27 59 51 52 48 49 48 46 45 48 58 60 70 76 78 74 73 76 75 73 71 69 74 66 55 53 51 49 49 50 48 47 45 40 35 31 31 35 51 54 56 57
34 22 22 20 24 22 23 35 36 40 50 50 48 56 44 52 48 58 73 81 80 78 75 76 72 77 76 71 72 74 66 59 54 51 50 51 50 48 38 31 28 28 28 33 42 46 56 61 61
25 21 21 22 30 30 30 33 31 34 34 48 50 50 47 46 51 64 89 88 88 85 86 76 83 82 79 69 78 72 61 56 53 52 53 49 35 29 28 27 29 29 34 47 50 55 61 63 67
21 25 36 42 43 58 47 38 39 41 26 28 38 46 47 49 59 70 90 94 99 90 83 82 83 83 81 83 77 66 58 54 56 53 38 28 28 29 29 30 29 31 42 50 57 62 62 61 64
25 33 45 45 69 61 46 46 40 32 33 28 30 38 42 54 71 79 89 92 95 94 89 85 79 78 77 80 60 56 51 53 50 40 31 29 30 31 33 33 35 37 43 52 65 61 53 61 72
34 34 54 43 74 53 52 58 38 27 29 32 30 45 66 70 70 78 82 82 82 80 74 70 59 51 56 58 55 50 46 46 42 32 31 30 31 32 35 35 38 40 42 44 55 65 61 67 63
38 34 35 70 79 76 62 42 30 34 40 35 49 53 73 80 79 77 75 71 69 60 58 54 51 48 45 44 44 42 39 33 34 32 30 31 34 35 36 36 40 41 43 44 47 54 72 71 63
37 26 40 59 65 68 41 38 45 34 32 38 50 52 69 71 69 69 66 64 56 48 48 49 49 50 49 46 40 33 34 33 31 32 32 33 34 36 36 39 40 41 42 47 49 57 72 55 57
35 31 30 42 58 58 68 44 26 33 33 32 45 52 63 64 62 62 61 60 53 48 48 49 50 50 48 46 41 34 36 32 32 34 36 37 37 38 40 41 41 42 44 50 49 49 47 54 61
33 33 38 62 38 76 76 49 26 26 28 35 46 48 57 55 54 54 56 60 59 54 53 52 51 49 46 41 39 35 35 32 35 36 37 38 38 39 42 43 44 41 46 50 47 46 46 45 61

GFSSGP_925_rhum_030.txt.gz
RH
20 19 19 26 30 32 28 24 19 19 63 75 75 82 95 88 80 80 100 91 94 98 95 77 63 54 54 52 40 29 22 19 20 23 26 24 29 34 43 59 69 69 69 71 59 45 48 49 51
18 19 27 30 27 27 21 19 29 60 61 64 56 77 89 94 83 95 94 97 93 97 96 78 60 55 59 56 43 30 22 16 18 19 22 26 24 35 47 57 67 67 68 70 48 41 48 50 48
23 36 39 32 29 24 21 16 57 59 63 51 50 63 84 97 85 94 92 94 93 99 96 78 67 68 67 55 39 29 20 18 19 26 26 34 42 41 43 47 59 68 67 59 38 34 33 36 40
28 33 22 22 22 18 16 19 60 57 56 57 54 83 93 99 99 98 99 97 96 99 94 86 68 70 65 52 33 29 21 20 33 31 40 62 62 42 34 36 42 54 64 58 40 39 34 35 40
25 28 26 21 18 16 42 60 63 63 67 69 63 93 92 95 99 100 100 98 92 99 95 86 71 70 63 48 34 33 24 29 46 53 57 70 44 36 32 32 40 41 44 49 46 41 39 35 35
35 26 27 23 18 17 53 62 60 66 64 66 86 87 94 100 96 100 100 100 100 100 100 92 70 77 65 55 30 33 32 51 42 56 56 44 38 35 32 32 33 35 43 48 50 44 41 40 40
34 35 30 23 23 25 51 57 56 62 64 69 70 90 96 98 100 97 100 100 100 99 100 100 93 90 72 44 40 29 35 35 46 45 39 34 31 31 34 35 34 37 44 48 49 50 48 45 44
38 32 24 23 20 29 52 53 55 56 69 66 80 93 94 98 100 97 99 96 94 100 100 96 100 87 57 47 46 37 32 33 40 33 30 30 32 35 36 38 41 45 46 48 51 50 49 48 46
22 32 30 21 27 37 55 57 56 72 89 85 88 92 94 100 99 97 99 100 99 94 96 97 86 80 73 54 50 30 45 40 30 31 34 35 38 37 38 41 46 49 52 52 52 52 49 47 44
28 32 26 20 23 47 51 52 56 67 90 89 92 96 100 100 100 98 97 99 100 100 91 88 81 65 63 64 40 26 28 31 36 37 36 37 38 39 43 48 48 53 54 55 49 46 44 42 44
24 27 22 21 44 49 49 50 51 67 72 84 86 97 95 97 98 96 95 96 100 97 89 82 79 77 68 53 36 36 40 41 42 40 52 51 44 43 50 57 60 57 52 50 47 44 42 42 42
23 22 22 31 54 51 49 44 58 67 76 79 84 88 88 89 90 92 96 99 100 99 79 82 80 66 70 70 44 40 42 39 47 59 63 61 61 56 53 60 58 53 47 46 45 43 40 39 39
21 18 24 40 51 48 47 59 76 95 87 81 86 87 86 89 87 90 96 98 99 87 84 88 97 87 82 59 51 47 48 48 52 60 64 61 62 65 66 65 56 52 49 47 44 42 42 42 42
18 25 38 46 50 42 59 63 61 89 83 84 86 84 81 84 84 84 94 95 89 86 91 91 88 93 82 62 54 48 57 61 63 68 70 67 68 66 59 56 54 50 47 44 44 44 44 45 44
28 38 41 47 46 38 46 47 68 86 81 86 83 70 70 78 82 83 88 85 76 76 76 79 88 94 82 67 56 56 80 78 74 74 73 69 67 62 59 57 54 49 46 45 45 46 47 46 43
21 28 30 50 43 41 32 49 74 87 84 90 86 82 76 78 82 80 83 85 79 78 73 74 88 92 83 65 66 76 84 80 78 77 76 77 71 65 60 55 50 47 46 45 45 46 46 42 34
29 28 24 42 44 42 35 42 65 79 87 86 88 88 89 88 84 82 76 80 78 71 75 80 85 89 84 66 69 85 81 73 69 67 70 72 72 62 54 48 47 47 46 47 48 46 37 33 37
30 30 27 27 36 42 42 39 63 70 75 89 90 92 93 90 85 80 75 73 74 76 83 84 84 85 79 69 81 89 80 73 59 58 63 70 62 55 51 48 48 49 48 49 41 37 37 38 44
27 30 34 28 23 44 51 46 59 67 72 82 82 84 90 88 75 74 73 67 76 82 88 85 83 82 78 81 90 83 70 65 64 62 63 60 59 54 50 49 51 52 48 41 42 40 43 49 49
31 31 33 27 21 39 44 49 53 69 69 70 72 74 75 76 82 75 75 73 76 78 84 85 83 83 84 82 80 74 66 65 59 57 56 57 57 52 51 52 52 47 38 32 34 35 41 54 54
30 32 34 31 20 28 34 39 59 56 54 57 63 61 62 64 81 78 82 84 84 88 88 86 81 83 87 88 78 70 70 67 62 58 54 56 54 53 52 51 43 33 30 28 31 32 35 51 58
33 28 33 29 24 30 28 35 34 61 63 57 56 59 60 57 64 69 79 88 90 90 90 90 84 82 84 84 77 72 69 72 68 58 56 56 54 53 49 37 31 28 23 22 26 33 43 55 62
32 27 30 28 34 36 38 39 33 56 65 58 55 55 54 60 55 64 67 78 86 83 84 89 92 86 84 81 78 75 75 73 66 60 58 56 52 43 35 31 27 22 20 27 28 31 49 58 60
26 28 33 43 45 52 41 43 44 49 50 46 47 49 48 58 60 59 57 67 78 81 79 88 84 89 86 83 81 80 82 80 64 62 56 50 42 36 32 29 24 32 56 32 28 41 58 56 56
30 35 42 39 62 57 47 52 45 30 33 40 46 47 46 48 65 76 79 76 79 82 84 91 81 100 94 90 91 91 87 81 64 57 55 44 38 34 32 29 34 49 27 25 24 47 62 61 63
33 36 53 34 62 43 51 50 33 31 32 36 35 36 43 62 56 77 83 79 84 85 89 96 91 97 96 96 96 90 89 85 67 57 53 47 40 34 32 28 48 49 58 23 26 39 57 67 71
36 40 36 70 80 74 55 44 30 29 39 47 48 48 51 72 64 70 86 85 92 87 87 88 98 98 96 94 92 92 89 85 70 60 55 45 37 32 31 45 56 33 21 24 34 41 46 62 70
32 41 49 63 53 59 52 46 40 30 34 44 51 57 53 71 81 84 91 92 91 83 87 87 92 91 93 92 93 90 81 81 74 65 50 41 37 32 33 51 32 28 30 32 40 47 50 61 59
41 40 46 50 61 58 67 49 37 28 30 32 41 52 56 74 88 92 94 93 92 91 86 89 88 86 86 89 90 90 83 78 73 57 50 44 34 32 46 31 34 35 38 40 41 47 52 50 48
34 41 47 66 46 79 78 58 30 28 29 30 30 36 49 70 85 91 91 91 93 90 87 84 87 84 81 83 80 81 80 66 63 56 44 35 32 38 30 36 39 41 43 43 42 46 49 48 50

GFSSGP_925_rhum_036.txt.gz
RH
33 27 20 16 15 11 12 9 10 18 19 41 47 44 33 52 41 49 83 88 79 71 70 84 98 99 88 80 76 63 57 40 26 35 36 39 45 50 53 57 56 68 80 80 82 85 86 59 40
23 19 18 12 12 12 10 10 13 22 30 41 50 49 47 69 55 70 89 93 83 79 72 71 70 77 75 66 58 51 42 38 53 44 44 48 56 56 55 54 69 81 84 85 81 78 52 38 40
25 24 14 12 10 10 10 12 19 27 34 40 43 51 60 77 65 76 80 90 88 84 76 73 69 59 55 49 44 49 62 62 52 54 54 56 54 56 53 58 66 70 76 86 73 50 42 39 42
19 17 12 12 11 9 9 16 32 35 36 36 40 57 72 95 89 81 92 98 94 86 77 86 65 54 48 44 48 70 67 72 64 73 51 61 57 52 54 57 59 54 53 46 45 46 39 39 42
16 13 13 12 11 8 10 18 35 36 38 41 42 59 69 92 99 97 95 94 94 89 87 93 68 62 60 67 75 70 55 48 65 73 58 62 61 56 58 55 51 39 36 35 38 41 39 42 44
15 13 13 12 9 11 16 30 38 41 44 47 46 50 82 100 99 100 100 100 95 93 93 93 77 83 85 88 79 51 53 45 58 57 64 64 64 56 53 43 41 39 36 35 36 40 41 44 45
16 13 12 11 17 18 32 36 40 42 42 50 49 57 89 97 100 100 100 100 100 99 100 97 92 88 83 77 73 56 55 48 67 55 59 60 52 52 46 43 43 42 40 41 41 42 43 46 42
15 14 13 15 17 21 32 40 42 42 47 51 50 58 89 97 100 100 100 99 100 100 100 97 92 86 76 76 73 67 60 62 60 46 53 54 48 46 46 50 51 49 46 44 45 46 47 44 43
13 13 14 16 18 19 29 35 43 46 53 56 63 60 82 100 99 99 100 100 100 100 99 99 88 76 56 60 72 73 60 71 53 47 48 44 50 50 52 58 54 52 51 50 48 47 46 43 43
15 14 13 12 12 15 28 33 41 48 51 65 90 91 99 98 91 93 99 100 100 99 100 99 95 70 68 76 82 87 86 77 67 65 55 53 60 52 56 69 54 54 53 53 50 46 44 47 45
15 14 13 12 14 14 25 34 38 47 48 47 86 95 90 86 82 87 96 100 100 100 100 100 83 85 72 61 63 83 84 68 71 57 66 73 72 59 66 68 62 56 54 51 48 47 47 49 44
18 14 14 14 20 24 29 32 40 46 63 53 82 86 84 80 81 80 91 98 98 99 99 98 96 90 83 75 82 60 58 56 41 37 50 55 63 66 64 59 61 57 54 56 52 52 55 52 50
18 15 16 19 22 32 34 36 41 58 57 73 82 88 85 77 81 88 93 94 90 84 89 84 79 70 73 53 51 43 34 46 42 50 55 54 56 66 64 62 56 54 55 54 52 52 50 50 48
16 19 28 25 32 35 37 41 42 55 59 74 68 87 80 74 84 90 88 83 81 77 80 80 74 51 44 57 58 46 60 60 64 64 66 72 63 72 67 64 59 56 54 53 51 50 46 44 45
18 28 21 28 33 35 32 35 42 48 53 66 52 54 69 66 75 82 82 75 78 82 85 86 78 70 66 65 64 58 62 66 58 68 88 79 76 76 69 61 59 58 59 58 56 50 48 44 40
18 21 31 30 29 30 35 35 50 44 46 47 51 55 58 62 64 69 71 64 70 73 73 73 76 81 88 88 70 58 65 64 64 78 83 82 76 75 70 64 60 59 57 54 49 46 44 37 32
17 19 21 30 25 31 32 29 43 46 40 50 43 43 49 57 52 61 56 52 56 61 65 63 70 74 80 83 71 74 72 76 74 89 89 84 75 72 65 62 64 63 56 53 48 45 37 32 30
19 19 20 26 29 30 28 24 41 50 45 45 43 39 40 43 42 52 58 54 57 59 64 66 74 79 89 81 77 64 79 82 91 89 84 83 72 72 69 67 68 58 52 52 46 43 39 31 32
17 18 18 17 19 24 20 20 33 49 51 50 48 44 38 38 38 45 49 56 59 62 68 67 71 79 90 77 64 62 73 82 85 87 84 84 73 73 69 64 66 55 50 48 50 43 36 39 42
22 19 19 18 19 22 19 19 23 40 52 50 46 46 44 41 36 45 52 51 54 57 65 69 71 78 83 69 62 63 72 81 78 77 82 81 75 70 65 62 58 54 54 54 49 38 40 42 44
23 20 20 22 20 20 20 21 28 31 37 43 43 38 37 37 41 43 49 55 54 54 59 64 67 71 78 70 64 69 80 94 85 76 76 73 74 66 62 64 57 58 51 48 43 43 48 45 50
23 19 22 23 22 20 21 20 21 24 34 37 38 38 38 34 34 34 45 50 54 55 57 62 62 67 73 76 65 68 69 74 84 78 69 71 75 68 62 63 63 57 46 43 42 52 53 52 47
21 23 23 22 22 25 22 19 19 25 27 28 33 34 32 32 31 33 35 44 49 52 56 62 64 66 70 78 76 75 73 72 78 78 72 77 80 74 65 66 59 53 46 45 51 59 58 56 49
23 23 23 26 25 30 22 23 18 18 16 15 18 27 31 31 31 31 34 38 44 52 58 65 67 68 74 86 96 94 86 82 86 76 74 76 76 73 68 60 52 53 45 53 68 65 67 58 46
23 23 29 29 31 32 30 29 18 14 14 16 17 17 23 28 30 32 34 36 40 47 61 67 70 77 81 95 78 87 96 90 94 83 77 75 76 68 62 55 55 52 52 66 65 70 61 57 48
23 22 29 37 32 23 33 26 17 15 16 18 21 20 19 24 27 29 30 33 37 46 58 66 74 78 93 74 82 90 99 94 94 84 82 72 65 63 62 58 54 51 61 62 71 57 64 60 53
27 28 22 35 48 34 23 21 16 14 17 19 21 25 22 21 20 25 27 30 36 44 57 66 73 78 90 58 55 87 94 96 84 79 79 70 70 70 61 60 56 56 62 65 59 56 58 53 63
27 22 32 32 41 39 25 25 18 16 15 15 15 16 21 25 25 25 27 29 34 39 52 65 69 68 78 75 87 91 97 95 89 85 85 80 82 71 62 63 61 61 53 58 57 55 53 62 62
32 29 30 28 32 35 34 25 16 16 15 15 16 19 19 21 28 31 32 36 41 44 52 61 66 64 66 66 81 95 94 91 92 95 94 92 87 74 66 66 63 48 62 54 50 49 56 57 55
20 21 25 34 32 36 44 30 15 15 18 18 19 19 20 24 25 33 37 46 50 53 54 58 62 62 62 67 76 84 89 92 97 99 98 98 89 82 68 64 63 59 57 49 53 56 50 62 68

GFSSGP_925_rhum_042.txt.gz
RH
18 27 30 19 18 16 14 11 7 6 11 34 42 56 42 62 23 53 78 63 69 85 91 87 86 79 83 75 71 62 56 49 40 32 30 34 44 59 69 76 80 90 80 79 79 72 41 33 40
26 23 13 12 18 18 12 10 8 11 31 27 29 61 56 82 81 58 69 67 79 82 89 95 89 88 92 88 74 63 57 41 34 27 32 39 56 61 68 76 82 83 81 80 78 70 35 35 46
19 17 14 15 16 15 11 9 10 14 17 32 34 26 49 92 74 62 73 77 76 79 89 93 90 90 94 86 74 63 53 40 34 35 39 54 62 66 69 75 82 84 82 81 78 43 36 35 44
21 13 12 14 10 8 8 9 10 14 45 30 19 51 61 72 76 67 68 78 80 82 83 84 89 91 97 88 77 64 48 44 37 46 59 68 69 73 80 82 84 85 85 81 56 39 36 33 34
13 11 14 13 12 7 10 10 10 17 54 45 36 67 72 79 94 96 81 86 72 81 77 85 97 85 88 83 75 64 52 53 54 67 66 73 75 79 83 84 84 85 72 47 42 40 36 37 35
15 12 13 13 11 22 37 41 26 16 40 38 38 61 71 95 96 99 98 83 80 79 79 94 94 99 94 81 66 55 62 57 69 71 67 68 64 66 71 69 68 61 44 41 42 40 38 40 38
13 13 13 11 11 26 46 55 49 42 52 65 54 83 84 91 99 100 99 98 96 80 94 98 98 100 94 76 74 70 65 72 81 79 69 62 55 51 50 47 44 44 39 41 42 41 40 41 39
10 11 12 9 16 23 36 40 39 23 72 68 53 53 80 94 99 100 100 98 100 100 99 96 95 95 89 84 82 79 77 76 80 69 63 62 52 42 37 38 41 40 39 42 44 43 42 43 39
8 13 14 12 12 17 18 32 54 46 29 60 73 82 89 98 98 99 99 100 100 100 96 88 93 92 85 81 82 80 74 65 73 60 58 53 46 43 53 41 41 42 41 44 45 44 44 42 36
10 14 13 9 9 12 11 18 59 49 25 70 65 78 88 86 89 96 99 100 100 100 100 100 99 96 91 77 69 70 66 74 69 56 54 54 58 73 57 47 44 45 46 47 46 46 47 46 43
10 13 11 9 12 11 13 35 52 30 52 84 67 82 78 86 90 96 99 100 100 100 99 100 95 94 87 86 69 52 70 75 53 55 66 52 61 60 52 53 52 50 49 48 46 46 54 51 44
11 9 10 10 10 13 13 24 43 48 60 61 70 72 75 79 83 92 99 100 100 99 100 100 95 77 60 66 67 67 65 62 61 69 61 53 58 48 47 52 55 55 53 48 50 55 55 48 45
11 10 10 11 14 14 16 22 26 47 56 62 68 72 77 71 81 93 100 100 100 100 100 100 97 85 81 73 73 70 64 63 70 64 56 52 54 56 50 57 58 55 56 53 53 54 52 47 47
12 13 12 13 13 15 22 63 56 67 51 64 64 78 91 86 84 91 96 99 100 100 100 93 91 88 85 82 77 71 75 68 55 43 37 42 52 61 59 62 56 56 55 54 53 52 48 42 41
11 14 13 15 15 21 30 43 71 64 44 43 51 66 80 91 88 79 87 94 99 99 94 91 88 86 82 80 73 66 57 53 46 42 51 59 55 62 63 58 57 55 55 53 51 49 41 42 37
15 13 18 20 19 27 32 55 39 37 42 44 42 52 71 82 69 68 81 88 97 98 96 97 94 81 78 72 55 54 60 51 47 42 56 44 53 65 61 64 58 56 55 56 55 49 43 39 33
14 18 17 19 17 26 32 64 49 43 33 42 47 54 62 74 66 72 70 79 82 86 88 92 97 78 74 69 64 58 59 57 54 47 46 60 53 73 66 64 60 58 59 56 52 45 40 36 32
18 20 18 24 23 18 48 59 63 74 30 34 36 35 46 49 60 69 61 64 66 72 74 76 80 70 64 57 61 70 56 51 44 34 57 68 69 71 72 69 61 61 59 54 51 45 40 36 34
12 16 20 22 24 23 29 46 64 50 34 35 32 35 40 46 44 60 56 60 62 66 63 63 76 68 72 73 68 62 55 55 55 57 70 76 69 71 72 68 64 64 60 54 52 44 41 35 40
12 14 16 12 15 15 15 15 32 29 32 34 38 36 38 44 48 46 56 60 64 63 65 69 64 67 64 69 56 60 51 51 52 64 70 72 75 71 71 70 71 70 60 54 50 48 46 40 45
13 15 15 20 19 15 15 16 14 29 25 28 32 33 30 33 49 44 48 54 58 61 62 65 67 67 72 70 64 53 50 50 56 60 64 70 74 72 70 71 66 66 60 54 54 50 44 42 46
15 11 14 19 19 20 16 26 17 25 25 28 28 30 28 27 33 42 43 50 53 58 60 60 60 58 62 63 65 51 50 52 57 58 62 66 71 75 70 67 67 62 60 56 56 53 46 48 53
14 18 21 18 17 21 18 20 13 16 20 28 30 30 28 28 27 35 40 44 50 51 57 57 56 56 63 62 66 59 49 54 56 60 59 65 70 74 74 66 65 63 60 59 57 55 48 57 58
13 20 22 19 20 33 21 18 23 25 26 18 21 26 27 26 26 26 32 38 45 50 53 58 57 56 59 68 62 62 51 55 62 66 68 70 73 74 77 68 66 66 66 64 52 47 54 62 60
15 20 31 34 37 40 20 18 17 25 21 19 15 16 26 26 26 26 27 32 37 44 52 54 57 56 54 68 68 59 59 60 58 64 72 82 76 75 76 76 72 75 72 67 52 52 62 66 65
20 20 35 75 88 46 31 26 16 15 12 11 11 11 16 24 26 25 24 28 32 39 47 50 53 53 52 54 70 61 56 59 66 68 70 80 77 76 78 79 75 74 72 70 54 61 70 66 68
20 25 19 63 70 70 61 21 11 12 11 11 11 13 16 16 23 24 23 23 28 35 42 49 50 51 50 52 70 69 46 76 80 81 74 83 83 80 81 82 80 72 71 60 56 62 66 70 60
18 18 32 32 56 62 26 20 20 18 13 12 12 14 17 16 16 21 22 22 24 32 39 46 47 50 50 53 71 82 78 87 79 82 87 92 90 87 83 80 79 76 75 61 60 66 66 62 61
20 23 27 29 30 48 47 30 31 35 36 14 12 13 15 17 19 20 22 20 21 25 31 46 49 49 53 58 74 78 87 89 88 89 93 94 93 90 85 82 84 78 66 64 64 67 68 63 54
18 21 24 41 36 42 61 39 15 19 22 14 14 14 14 14 16 21 25 24 23 23 26 48 50 53 59 71 83 83 89 81 83 86 88 91 90 86 83 83 81 74 69 68 70 70 60 53 65